Location: Albany
(35.0170°S, 117.8920°E)
Time: 21:20:13
(UTC+08:00)

A-11 Canister half - Pass Details

Date: 26 January 2021
Orbit: 1525 x 1684 km, 47.3° (Epoch: 03 March)

Event Time Altitude Azimuth Distance (km) Brightness Sun altitude
Rises 05:05:46 0° 256° (WSW) 4,931 11.2 -3.7°
Reaches altitude 10° 05:09:17 10° 248° (WSW) 3,930 10.8 -3.1°
Maximum altitude 05:18:37 40° 181° (S) 2,255 10.2 -1.4°
Drops below altitude 10° 05:27:40 10° 113° (ESE) 3,817 13.5 0.3°
Sets 05:31:02 0° 105° (ESE) 4,777 14.3 1.0°
